| time (UTC) | temp C | wind direction | speed KPH | gust KPH | rain 1hr cm | rain 24hr cm | rain mn cm | humidity % | barometer mb |
| 20260510144138 | 28 | 239 | 19.3 | 33.8 | 0.00 | 0.00 | 0.00 | 25 | 1009.2 |
| 20260510143037 | 26 | 234 | 17.7 | 25.7 | 0.00 | 0.00 | 0.00 | 30 | 1009.2 |
| 20260510141937 | 25 | 242 | 16.1 | 24.1 | 0.00 | 0.00 | 0.00 | 35 | 1009.1 |
| 20260510140838 | 24 | 227 | 14.5 | 19.3 | 0.00 | 0.00 | 0.00 | 37 | 1009.1 |
| 20260510135736 | 24 | 232 | 14.5 | 19.3 | 0.00 | 0.00 | 0.00 | 37 | 1009.1 |
| 20260510134635 | 24 | 196 | 14.5 | 20.9 | 0.00 | 0.00 | 0.00 | 37 | 1009.0 |
| 20260510133534 | 23 | 235 | 12.9 | 17.7 | 0.00 | 0.00 | 0.00 | 39 | 1008.9 |
| 20260510132434 | 22 | 231 | 11.3 | 20.9 | 0.00 | 0.00 | 0.00 | 41 | 1008.7 |
| 20260510131333 | 22 | 209 | 11.3 | 17.7 | 0.00 | 0.00 | 0.00 | 44 | 1008.7 |
| 20260510130234 | 21 | 221 | 12.9 | 19.3 | 0.00 | 0.00 | 0.00 | 46 | 1008.4 |
| 20260510125132 | 21 | 214 | 14.5 | 19.3 | 0.00 | 0.00 | 0.00 | 46 | 1008.3 |
| 20260510124031 | 21 | 208 | 12.9 | 16.1 | 0.00 | 0.00 | 0.00 | 46 | 1008.2 |
| 20260510122931 | 21 | 206 | 16.1 | 22.5 | 0.00 | 0.00 | 0.00 | 46 | 1008.1 |
| 20260510121830 | 22 | 202 | 19.3 | 24.1 | 0.00 | 0.00 | 0.00 | 45 | 1007.9 |
| 20260510120729 | 22 | 210 | 17.7 | 25.7 | 0.00 | 0.00 | 0.00 | 46 | 1007.8 |
| 20260510115629 | 21 | 199 | 16.1 | 20.9 | 0.00 | 0.00 | 0.00 | 48 | 1007.9 |
| 20260510114528 | 21 | 193 | 17.7 | 24.1 | 0.00 | 0.00 | 0.00 | 48 | 1007.6 |
| 20260510113428 | 21 | 194 | 14.5 | 19.3 | 0.00 | 0.00 | 0.00 | 48 | 1007.7 |
| 20260510112327 | 22 | 204 | 19.3 | 29.0 | 0.00 | 0.00 | 0.00 | 47 | 1007.6 |
| 20260510111226 | 22 | 206 | 22.5 | 32.2 | 0.00 | 0.00 | 0.00 | 46 | 1007.5 |
| 20260510110126 | 22 | 181 | 14.5 | 35.4 | 0.00 | 0.00 | 0.00 | 46 | 1007.3 |
| 20260510105229 | 22 | 175 | 12.9 | 29.0 | 0.00 | 0.00 | 0.00 | 47 | 1007.1 |
| 20260510105025 | 22 | 175 | 12.9 | 29.0 | 0.00 | 0.00 | 0.00 | 47 | 1007.1 |
| 20260510103924 | 22 | 168 | 16.1 | 30.6 | 0.00 | 0.00 | 0.00 | 47 | 1007.1 |
| 20260510102824 | 22 | 167 | 16.1 | 27.4 | 0.00 | 0.00 | 0.00 | 47 | 1007.1 |
| 20260510101723 | 22 | 173 | 14.5 | 29.0 | 0.00 | 0.00 | 0.00 | 48 | 1007.2 |
| 20260510100623 | 21 | 170 | 19.3 | 32.2 | 0.00 | 0.00 | 0.00 | 49 | 1007.2 |
| 20260510095522 | 21 | 192 | 19.3 | 25.7 | 0.00 | 0.00 | 0.00 | 52 | 1007.2 |
| 20260510094422 | 21 | 183 | 20.9 | 35.4 | 0.00 | 0.00 | 0.00 | 50 | 1007.1 |
| 20260510093321 | 21 | 171 | 19.3 | 29.0 | 0.00 | 0.00 | 0.00 | 51 | 1007.1 |
| 20260510092220 | 21 | 193 | 12.9 | 25.7 | 0.00 | 0.00 | 0.00 | 52 | 1007.3 |
| 20260510091120 | 21 | 167 | 11.3 | 19.3 | 0.00 | 0.00 | 0.00 | 53 | 1007.2 |
| 20260510090019 | 21 | 156 | 11.3 | 14.5 | 0.00 | 0.00 | 0.00 | 53 | 1007.3 |
| 20260510084918 | 22 | 149 | 9.7 | 16.1 | 0.00 | 0.00 | 0.00 | 53 | 1007.3 |
| 20260510083818 | 22 | 156 | 9.7 | 17.7 | 0.00 | 0.00 | 0.00 | 53 | 1007.3 |
| 20260510082717 | 21 | 160 | 9.7 | 14.5 | 0.00 | 0.00 | 0.00 | 53 | 1007.4 |
| 20260510081617 | 21 | 156 | 9.7 | 12.9 | 0.00 | 0.00 | 0.00 | 55 | 1007.5 |
| 20260510080516 | 21 | 149 | 11.3 | 14.5 | 0.00 | 0.00 | 0.00 | 56 | 1007.6 |
| 20260510075415 | 21 | 150 | 11.3 | 17.7 | 0.00 | 0.00 | 0.00 | 57 | 1007.7 |
| 20260510074315 | 22 | 162 | 12.9 | 25.7 | 0.00 | 0.00 | 0.00 | 56 | 1007.7 |
| 20260510073214 | 22 | 135 | 12.9 | 20.9 | 0.00 | 0.00 | 0.00 | 55 | 1008.0 |
| 20260510072113 | 22 | 57 | 12.9 | 22.5 | 0.00 | 0.00 | 0.00 | 53 | 1008.1 |
| 20260510071013 | 22 | 155 | 12.9 | 25.7 | 0.00 | 0.00 | 0.00 | 53 | 1008.3 |
| 20260510065912 | 22 | 146 | 14.5 | 24.1 | 0.00 | 0.00 | 0.00 | 52 | 1008.4 |
| 20260510064812 | 22 | 168 | 14.5 | 33.8 | 0.00 | 0.00 | 0.00 | 52 | 1008.5 |
| 20260510063711 | 22 | 147 | 14.5 | 29.0 | 0.00 | 0.00 | 0.00 | 52 | 1008.7 |
| 20260510062610 | 22 | 152 | 12.9 | 24.1 | 0.00 | 0.00 | 0.00 | 51 | 1008.6 |
| 20260510061510 | 22 | 161 | 12.9 | 25.7 | 0.00 | 0.00 | 0.00 | 50 | 1008.8 |
| 20260510060409 | 22 | 164 | 12.9 | 25.7 | 0.00 | 0.00 | 0.00 | 49 | 1008.8 |
| 20260510055308 | 22 | 158 | 11.3 | 19.3 | 0.00 | 0.00 | 0.00 | 46 | 1008.9 |
| 20260510054208 | 22 | 144 | 11.3 | 22.5 | 0.00 | 0.00 | 0.00 | 44 | 1008.8 |
| 20260510053108 | 23 | 136 | 11.3 | 22.5 | 0.00 | 0.00 | 0.00 | 42 | 1009.0 |
| 20260510052007 | 23 | 133 | 9.7 | 27.4 | 0.00 | 0.00 | 0.00 | 40 | 1009.0 |
| 20260510050906 | 23 | 163 | 11.3 | 17.7 | 0.00 | 0.00 | 0.00 | 40 | 1009.1 |
| 20260510045805 | 23 | 152 | 9.7 | 20.9 | 0.00 | 0.00 | 0.00 | 37 | 1009.3 |
| 20260510044705 | 23 | 160 | 9.7 | 17.7 | 0.00 | 0.00 | 0.00 | 34 | 1009.4 |
| 20260510043604 | 23 | 152 | 9.7 | 17.7 | 0.00 | 0.00 | 0.00 | 32 | 1009.4 |
| 20260510041403 | 23 | 152 | 11.3 | 17.7 | 0.00 | 0.00 | 0.00 | 30 | 1009.4 |
| 20260510040302 | 23 | 147 | 12.9 | 17.7 | 0.00 | 0.00 | 0.00 | 28 | 1009.5 |
| 20260510035202 | 23 | 146 | 9.7 | 19.3 | 0.00 | 0.00 | 0.00 | 27 | 1009.3 |
| 20260510034101 | 23 | 147 | 11.3 | 25.7 | 0.00 | 0.00 | 0.00 | 26 | 1009.4 |
| 20260510033001 | 24 | 142 | 11.3 | 17.7 | 0.00 | 0.00 | 0.00 | 26 | 1009.3 |
| 20260510031900 | 24 | 145 | 12.9 | 19.3 | 0.00 | 0.00 | 0.00 | 25 | 1009.2 |
| 20260510030759 | 24 | 145 | 12.9 | 19.3 | 0.00 | 0.00 | 0.00 | 25 | 1009.0 |
| 20260510025659 | 25 | 145 | 11.3 | 19.3 | 0.00 | 0.00 | 0.00 | 25 | 1008.9 |
| 20260510024558 | 25 | 149 | 11.3 | 19.3 | 0.00 | 0.00 | 0.00 | 24 | 1008.7 |
| 20260510023457 | 25 | 131 | 12.9 | 22.5 | 0.00 | 0.00 | 0.00 | 23 | 1008.5 |
| 20260510022357 | 25 | 124 | 12.9 | 20.9 | 0.00 | 0.00 | 0.00 | 23 | 1008.4 |
| 20260510021256 | 25 | 137 | 9.7 | 17.7 | 0.00 | 0.00 | 0.00 | 23 | 1008.3 |
| 20260510020156 | 26 | 122 | 8.0 | 12.9 | 0.00 | 0.00 | 0.00 | 23 | 1008.3 |
| 20260510015055 | 26 | 119 | 9.7 | 12.9 | 0.00 | 0.00 | 0.00 | 22 | 1008.2 |
| 20260510013954 | 27 | 130 | 9.7 | 17.7 | 0.00 | 0.00 | 0.00 | 21 | 1008.2 |
| 20260510012854 | 27 | 119 | 9.7 | 14.5 | 0.00 | 0.00 | 0.00 | 19 | 1008.1 |
| 20260510011753 | 28 | 127 | 9.7 | 14.5 | 0.00 | 0.00 | 0.00 | 19 | 1008.0 |
| 20260510010653 | 29 | 112 | 12.9 | 17.7 | 0.00 | 0.00 | 0.00 | 18 | 1007.8 |
| 20260510005552 | 30 | 112 | 11.3 | 17.7 | 0.00 | 0.00 | 0.00 | 16 | 1007.7 |
| 20260510004451 | 30 | 122 | 14.5 | 20.9 | 0.00 | 0.00 | 0.00 | 15 | 1007.8 |
| 20260510003351 | 30 | 103 | 14.5 | 17.7 | 0.00 | 0.00 | 0.00 | 16 | 1007.7 |
| 20260510002250 | 30 | 118 | 16.1 | 29.0 | 0.00 | 0.00 | 0.00 | 15 | 1007.7 |
| 20260510001149 | 31 | 108 | 14.5 | 22.5 | 0.00 | 0.00 | 0.00 | 14 | 1007.9 |
| 20260510000049 | 31 | 112 | 16.1 | 24.1 | 0.00 | 0.00 | 0.00 | 13 | 1007.9 |
| 20260509234948 | 31 | 95 | 12.9 | 17.7 | 0.00 | 0.00 | 0.00 | 14 | 1008.0 |
| 20260509233848 | 31 | 116 | 9.7 | 17.7 | 0.00 | 0.00 | 0.00 | 14 | 1008.1 |
| 20260509232747 | 32 | 117 | 9.7 | 14.5 | 0.00 | 0.00 | 0.00 | 13 | 1008.3 |
| 20260509231646 | 32 | 175 | 4.8 | 8.0 | 0.00 | 0.00 | 0.00 | 12 | 1008.4 |
| 20260509230546 | 32 | 82 | 11.3 | 20.9 | 0.00 | 0.00 | 0.00 | 12 | 1008.5 |
| 20260509225445 | 32 | 79 | 17.7 | 22.5 | 0.00 | 0.00 | 0.00 | 12 | 1008.5 |
| 20260509224344 | 32 | 88 | 16.1 | 24.1 | 0.00 | 0.00 | 0.00 | 10 | 1008.4 |
| 20260509223244 | 32 | 90 | 12.9 | 22.5 | 0.00 | 0.00 | 0.00 | 11 | 1008.5 |
| 20260509222143 | 32 | 103 | 9.7 | 17.7 | 0.00 | 0.00 | 0.00 | 11 | 1008.5 |
| 20260509221043 | 32 | 94 | 9.7 | 19.3 | 0.00 | 0.00 | 0.00 | 11 | 1008.5 |
| 20260509215942 | 32 | 111 | 9.7 | 14.5 | 0.00 | 0.00 | 0.00 | 12 | 1008.7 |
| 20260509214841 | 32 | 110 | 6.4 | 12.9 | 0.00 | 0.00 | 0.00 | 12 | 1008.8 |
| 20260509213741 | 32 | 87 | 14.5 | 20.9 | 0.00 | 0.00 | 0.00 | 12 | 1009.0 |
| 20260509212640 | 32 | 143 | 6.4 | 8.0 | 0.00 | 0.00 | 0.00 | 11 | 1008.9 |
| 20260509211540 | 32 | 118 | 6.4 | 19.3 | 0.00 | 0.00 | 0.00 | 11 | 1009.2 |
| 20260509210439 | 32 | 191 | 11.3 | 19.3 | 0.00 | 0.00 | 0.00 | 12 | 1009.5 |
| 20260509205338 | 32 | 195 | 8.0 | 17.7 | 0.00 | 0.00 | 0.00 | 11 | 1009.5 |
| 20260509204238 | 32 | 115 | 6.4 | 6.4 | 0.00 | 0.00 | 0.00 | 12 | 1009.8 |
| 20260509203137 | 32 | 268 | 8.0 | 19.3 | 0.00 | 0.00 | 0.00 | 12 | 1009.8 |
| 20260509202036 | 32 | 212 | 8.0 | 20.9 | 0.00 | 0.00 | 0.00 | 13 | 1010.1 |
| 20260509200936 | 31 | 186 | 9.7 | 14.5 | 0.00 | 0.00 | 0.00 | 14 | 1010.2 |
| 20260509195835 | 31 | 157 | 9.7 | 33.8 | 0.00 | 0.00 | 0.00 | 12 | 1010.3 |
| 20260509194735 | 32 | 62 | 1.6 | 8.0 | 0.00 | 0.00 | 0.00 | 12 | 1010.5 |
| 20260509193634 | 31 | 160 | 3.2 | 16.1 | 0.00 | 0.00 | 0.00 | 13 | 1010.4 |
| 20260509192533 | 31 | 113 | 8.0 | 12.9 | 0.00 | 0.00 | 0.00 | 12 | 1010.7 |
| 20260509191433 | 31 | 215 | 4.8 | 11.3 | 0.00 | 0.00 | 0.00 | 13 | 1010.7 |
| 20260509190332 | 31 | 93 | 4.8 | 9.7 | 0.00 | 0.00 | 0.00 | 14 | 1011.0 |
| 20260509185231 | 30 | 244 | 12.9 | 17.7 | 0.00 | 0.00 | 0.00 | 14 | 1011.1 |
| 20260509184131 | 31 | 175 | 3.2 | 9.7 | 0.00 | 0.00 | 0.00 | 14 | 1011.1 |
| 20260509183030 | 31 | 191 | 4.8 | 11.3 | 0.00 | 0.00 | 0.00 | 14 | 1011.2 |
| 20260509181930 | 32 | 177 | 1.6 | 8.0 | 0.00 | 0.00 | 0.00 | 13 | 1011.5 |
| 20260509180829 | 30 | 38 | 4.8 | 9.7 | 0.00 | 0.00 | 0.00 | 14 | 1011.8 |
| 20260509175728 | 30 | 188 | 6.4 | 12.9 | 0.00 | 0.00 | 0.00 | 15 | 1011.9 |
| 20260509174628 | 30 | 161 | 4.8 | 12.9 | 0.00 | 0.00 | 0.00 | 17 | 1012.0 |
| 20260509173527 | 30 | 89 | 4.8 | 12.9 | 0.00 | 0.00 | 0.00 | 17 | 1012.1 |
| 20260509172426 | 28 | 182 | 3.2 | 14.5 | 0.00 | 0.00 | 0.00 | 17 | 1012.0 |
| 20260509171326 | 29 | 147 | 3.2 | 14.5 | 0.00 | 0.00 | 0.00 | 17 | 1012.0 |
| 20260509170225 | 28 | 282 | 8.0 | 16.1 | 0.00 | 0.00 | 0.00 | 17 | 1012.2 |
| 20260509165125 | 28 | 249 | 4.8 | 9.7 | 0.00 | 0.00 | 0.00 | 18 | 1012.2 |
| 20260509164024 | 27 | 228 | 8.0 | 12.9 | 0.00 | 0.00 | 0.00 | 20 | 1012.3 |
| 20260509162923 | 27 | 213 | 4.8 | 11.3 | 0.00 | 0.00 | 0.00 | 19 | 1012.5 |
| 20260509161823 | 27 | 137 | 3.2 | 8.0 | 0.00 | 0.00 | 0.00 | 20 | 1012.5 |
| 20260509160722 | 27 | 94 | 3.2 | 6.4 | 0.00 | 0.00 | 0.00 | 23 | 1012.5 |
| 20260509155622 | 26 | 208 | 3.2 | 8.0 | 0.00 | 0.00 | 0.00 | 23 | 1012.5 |
| 20260509154521 | 26 | 231 | 4.8 | 9.7 | 0.00 | 0.00 | 0.00 | 26 | 1012.5 |
| 20260509153420 | 25 | 189 | 3.2 | 11.3 | 0.00 | 0.00 | 0.00 | 27 | 1012.4 |
| 20260509152320 | 25 | 179 | 4.8 | 11.3 | 0.00 | 0.00 | 0.00 | 26 | 1012.5 |
| 20260509151219 | 25 | 157 | 4.8 | 9.7 | 0.00 | 0.00 | 0.00 | 26 | 1012.4 |
| 20260509150118 | 24 | 181 | 6.4 | 11.3 | 0.00 | 0.00 | 0.00 | 28 | 1012.6 |
| 20260509145018 | 23 | 192 | 6.4 | 12.9 | 0.00 | 0.00 | 0.00 | 29 | 1012.6 |